Theta_e
302 303 305 307 307 307 307 306 306 306 306 306 306 307 306 306 306 306 307 308 308 308 309 309 308 307 309 312 311 312 313 312 315 318 320 319 311 317 323 324 323 320 320 317 319 324 322 324 329 333 337 342 346 346 347 347 350 359 368 372 366 366 365 361 363 365 363 366 365 364 363 364 364 361 360 359 360 361 355 355 356 354 352 351 349 348 349 350
301 302 304 306 307 307 307 306 306 306 306 306 306 307 307 307 307 307 306 306 306 307 308 309 308 307 308 311 312 312 314 316 319 320 320 317 319 323 323 322 324 321 321 320 319 324 325 325 330 335 337 343 346 346 346 343 349 358 367 370 366 369 366 361 365 362 361 364 362 362 362 362 363 360 361 363 361 361 359 355 355 354 353 352 348 348 349 348
302 302 303 305 307 307 307 307 306 306 306 306 307 308 308 308 308 307 306 306 305 305 307 308 308 307 307 311 312 313 316 320 323 324 323 319 323 325 325 322 321 322 321 320 319 324 330 331 333 335 338 344 346 345 345 343 348 353 357 361 363 365 361 362 365 361 359 362 363 362 361 362 361 358 361 365 362 362 366 360 355 354 354 351 348 348 348 348
302 302 303 304 306 307 307 307 307 306 306 307 307 308 308 308 309 307 306 306 305 305 305 307 308 306 308 311 312 314 317 324 329 330 331 329 328 327 327 325 322 322 320 318 318 323 330 334 335 336 340 345 346 344 344 344 345 350 350 352 361 362 360 365 367 362 358 361 365 363 363 363 361 358 361 368 368 370 373 364 356 355 353 351 349 349 348 349
302 302 303 303 306 307 307 307 306 307 306 306 307 308 308 308 309 307 306 306 305 305 304 305 306 307 310 311 313 315 321 331 331 330 329 329 330 328 326 326 325 321 318 318 318 321 325 329 336 338 343 346 345 342 343 343 342 348 348 348 361 363 361 365 362 360 358 360 364 364 364 363 359 359 361 366 371 372 368 360 354 353 352 351 349 348 348 348
302 303 303 303 304 306 307 307 307 307 307 307 307 307 308 308 309 307 306 306 305 305 304 305 306 308 311 312 314 318 325 332 329 327 324 322 323 323 324 324 324 321 318 318 318 320 323 327 334 341 345 345 344 342 341 342 341 346 345 343 356 358 360 361 355 356 357 360 365 363 361 361 360 361 360 360 366 367 362 357 353 351 352 350 349 348 348 347
304 304 303 304 304 305 307 307 307 307 307 307 307 308 307 309 309 307 306 306 307 305 306 307 307 310 311 313 319 322 324 327 326 326 324 322 319 320 322 322 323 322 321 320 319 319 324 329 335 341 345 345 343 341 340 340 340 343 342 341 351 354 359 358 353 356 358 362 366 363 359 360 363 364 362 358 362 365 362 357 353 352 352 351 349 348 348 348
305 305 305 305 304 304 306 307 308 307 308 307 307 308 307 309 309 307 306 308 309 309 309 310 311 312 312 315 320 323 325 327 327 325 325 325 322 320 321 322 322 322 323 322 320 320 324 330 335 340 343 344 342 339 338 338 338 341 340 340 346 353 360 355 353 356 359 362 361 360 359 360 362 363 364 361 359 362 360 356 353 351 351 351 349 348 349 349
307 307 307 306 305 304 304 306 308 307 308 308 308 308 308 308 309 307 307 309 311 312 312 312 313 313 313 316 319 323 326 325 327 325 327 331 328 323 322 322 322 321 323 323 321 323 327 332 336 338 341 341 341 338 337 336 337 338 338 340 341 352 358 355 356 357 358 361 357 357 359 359 358 360 365 362 358 357 355 354 353 352 353 352 350 349 350 349
308 309 309 308 306 305 304 305 308 308 307 308 308 308 308 308 309 309 308 310 312 313 313 313 313 312 314 319 323 328 326 320 326 324 326 332 333 330 324 324 326 321 322 322 322 325 329 332 336 337 337 337 337 336 335 333 335 334 334 336 336 349 355 353 358 358 359 360 356 357 360 361 357 358 364 360 354 354 353 353 352 352 354 352 350 350 350 349
310 310 310 309 308 307 304 304 307 308 308 308 308 308 308 309 310 310 309 311 312 313 313 312 312 311 314 320 323 328 323 318 323 320 322 327 332 334 328 328 327 322 322 321 323 328 328 331 334 336 336 335 335 333 332 332 331 331 331 331 331 342 352 353 358 358 359 360 355 356 361 361 357 359 365 359 354 354 354 354 351 352 353 352 351 351 352 351
310 310 310 310 310 308 306 304 305 308 309 308 308 308 309 310 310 311 310 310 312 314 314 314 312 311 317 322 322 326 321 317 320 319 320 322 327 331 328 329 326 322 321 321 325 329 327 330 332 334 335 334 335 332 329 330 328 330 328 329 331 334 346 354 358 356 358 360 354 354 360 362 360 360 361 356 353 355 356 354 351 352 353 352 352 351 352 351
310 310 310 310 310 309 308 305 305 308 309 309 309 309 309 311 311 311 311 310 312 314 316 316 314 316 321 326 327 325 320 318 318 320 319 320 323 326 326 327 324 322 321 322 324 325 325 329 331 334 334 332 333 331 329 330 326 327 327 328 330 328 335 346 352 355 357 357 354 353 357 361 362 358 356 354 355 355 355 355 352 352 353 352 353 351 352 351
310 310 310 310 310 310 309 306 304 306 308 309 309 310 310 311 312 312 312 311 312 315 317 317 317 320 325 329 328 321 318 318 318 319 318 318 322 324 326 328 326 323 322 322 323 325 329 330 331 332 332 332 333 331 330 331 327 326 326 326 329 323 325 333 338 350 357 354 354 353 351 356 361 357 354 354 356 354 353 354 352 352 352 351 352 352 352 351
310 310 310 310 309 309 309 307 305 305 308 309 309 310 311 312 313 313 313 311 311 314 316 318 319 323 329 332 329 320 319 319 319 319 319 318 319 323 326 327 329 327 323 324 326 330 335 333 332 331 332 332 330 330 331 331 330 329 323 320 324 321 323 331 330 342 352 351 354 350 347 354 359 357 354 355 356 354 353 353 354 353 352 352 353 351 351 351
309 310 310 310 309 309 309 307 305 305 309 310 310 311 312 313 314 314 314 312 312 313 316 322 323 325 330 330 324 320 318 319 319 318 318 317 317 320 324 326 329 330 328 328 330 334 335 334 333 330 330 330 330 331 331 329 327 328 322 316 319 319 321 327 329 333 342 349 354 349 351 359 361 357 355 355 354 354 356 355 354 356 353 352 353 352 352 351
309 309 310 310 310 309 308 308 305 306 309 310 311 312 314 315 316 316 316 315 313 313 318 324 325 327 331 329 322 320 319 317 317 317 317 317 316 317 321 325 326 329 330 330 332 334 334 333 333 330 329 329 330 330 327 322 320 323 323 318 319 321 319 321 327 331 336 349 355 350 355 361 359 356 354 354 354 354 357 355 354 358 354 353 353 351 351 352
308 309 309 309 309 309 309 308 306 306 308 311 312 313 315 318 318 318 317 318 319 320 323 324 326 330 329 326 325 320 316 316 315 317 318 317 318 317 320 325 326 327 328 330 332 333 332 332 331 332 331 328 330 331 323 320 320 318 318 316 317 320 320 320 325 330 333 345 354 350 353 357 355 354 354 353 355 355 358 355 356 360 357 354 353 352 352 352
308 309 308 309 309 309 310 308 307 306 308 312 313 314 318 320 322 321 318 322 327 329 331 328 332 333 322 319 321 316 316 316 314 317 318 318 318 317 318 325 327 326 327 330 332 332 331 332 332 330 329 329 329 329 326 325 325 323 320 318 316 316 319 323 326 329 331 341 352 352 350 355 356 355 355 353 354 357 357 357 360 362 359 358 355 353 353 352
307 308 308 309 308 309 310 309 307 307 308 311 311 315 318 318 320 321 317 319 325 328 328 325 329 328 317 314 316 316 316 315 316 316 318 320 319 317 317 323 327 327 328 330 330 329 331 331 331 329 328 330 329 329 330 329 328 327 324 319 318 316 317 325 329 329 332 336 345 351 348 354 355 354 356 352 354 358 358 359 362 360 358 362 359 353 354 353
307 308 308 308 309 309 310 310 309 309 309 309 310 314 317 314 315 317 315 315 317 319 319 320 321 318 315 315 314 315 315 314 315 317 319 320 318 318 320 324 327 328 328 329 328 329 329 329 329 329 330 329 329 330 328 328 327 326 324 319 318 318 318 324 328 328 333 334 339 347 348 352 356 353 355 354 355 357 358 358 362 361 357 359 361 356 358 357
307 307 308 308 309 310 311 311 310 311 311 311 313 316 316 315 315 315 314 314 315 314 315 316 315 314 314 315 315 315 314 313 315 317 319 318 318 321 323 324 325 329 329 327 329 328 328 327 329 330 331 329 329 330 328 327 326 324 322 319 316 319 320 323 328 330 331 330 335 345 346 350 355 354 354 355 355 355 355 356 359 362 360 359 360 359 362 362
307 307 308 308 309 310 311 312 311 313 313 313 316 318 316 315 316 316 315 314 315 316 315 315 314 313 314 315 315 314 313 313 315 319 319 318 319 321 323 323 324 325 326 326 328 326 324 327 328 329 329 330 329 327 326 324 324 324 322 317 315 320 318 316 321 329 330 329 336 342 347 351 355 354 355 353 353 352 353 355 359 362 361 357 359 358 360 364
307 308 308 308 309 310 311 312 313 314 315 315 317 317 316 316 317 316 315 315 315 315 316 317 315 315 315 314 314 312 312 314 314 318 318 318 319 321 323 324 324 325 324 325 327 324 324 326 328 328 327 329 328 326 325 322 320 323 323 318 317 321 320 317 321 327 326 325 332 336 335 343 356 356 357 354 353 354 354 355 361 364 362 358 359 358 358 361
308 309 309 309 309 310 311 313 315 314 314 315 317 317 316 316 317 316 314 316 317 317 316 317 315 315 315 314 314 313 312 314 314 317 318 318 317 317 320 321 325 326 325 324 325 324 325 326 325 328 326 327 326 325 326 322 318 318 323 325 322 322 323 322 323 322 317 317 328 327 320 329 353 355 356 356 354 356 354 356 363 365 363 359 359 359 359 359
309 309 310 310 309 309 312 315 316 314 315 317 317 316 316 317 316 314 316 318 317 317 316 314 314 314 314 314 314 313 313 315 315 316 318 317 316 317 317 319 324 327 326 325 326 325 324 325 324 324 326 327 327 325 325 325 319 315 323 327 326 326 324 322 321 317 312 313 325 327 318 321 339 348 354 355 355 357 353 357 365 365 362 359 359 360 359 357
309 310 310 310 310 309 312 315 315 315 317 317 317 316 316 316 316 314 320 321 317 316 314 312 314 313 313 314 313 314 313 314 316 317 317 316 316 317 317 318 321 322 323 323 323 324 325 325 324 324 325 325 325 324 326 326 320 317 326 326 326 327 322 322 321 315 315 316 321 325 319 317 324 340 353 352 353 356 353 358 365 365 362 359 358 361 361 357
310 310 310 310 310 310 310 311 314 316 318 318 317 316 316 316 316 315 322 323 319 315 314 312 313 312 312 314 313 313 314 315 315 316 317 316 316 316 317 316 318 318 319 319 318 322 326 325 324 324 324 323 324 325 327 325 322 322 327 326 326 326 325 324 321 316 317 316 314 319 317 316 319 336 352 353 351 354 354 361 366 364 361 360 357 360 363 358
310 310 310 310 311 312 313 313 315 317 318 318 318 317 316 317 317 316 322 325 319 313 314 313 313 313 313 315 314 314 314 314 315 316 317 317 316 316 316 315 315 317 317 318 318 320 322 324 323 323 324 323 324 326 326 325 324 326 327 326 326 326 326 325 321 317 316 314 312 314 314 313 318 331 344 348 348 351 355 360 364 363 360 359 358 359 361 359
310 311 311 311 311 313 315 314 315 317 317 318 317 316 316 317 318 321 324 325 317 313 314 313 313 314 314 314 314 315 314 315 315 315 316 316 316 316 315 316 316 316 318 317 318 319 320 321 322 323 324 324 324 326 326 325 325 325 325 326 324 324 327 327 326 323 317 315 315 313 313 312 315 326 338 343 347 352 355 357 361 362 360 358 356 357 359 357
311 312 311 311 312 312 312 313 315 317 317 317 316 316 317 318 320 323 325 320 313 314 315 314 315 314 314 315 315 315 315 316 316 315 315 315 315 315 316 317 316 315 315 314 315 318 317 319 320 322 324 326 326 325 326 325 325 324 325 323 319 320 321 320 322 321 317 318 317 314 314 311 310 320 333 341 349 353 353 355 359 361 359 357 356 355 356 354
311 312 313 313 313 312 312 314 316 317 317 316 316 316 318 322 323 321 321 315 312 314 314 315 316 314 315 315 315 315 315 315 315 315 315 314 315 316 316 317 316 315 313 312 313 314 315 316 318 321 323 325 326 325 324 324 324 324 324 320 316 316 316 315 317 316 316 318 319 315 315 311 310 319 327 330 339 350 353 353 356 360 359 357 355 354 354 353
312 313 315 315 313 312 313 315 317 318 318 316 317 317 319 324 325 320 317 314 313 314 315 316 316 315 315 314 315 316 314 314 314 314 314 315 316 317 317 317 317 316 315 314 313 312 313 316 317 319 321 324 326 323 320 320 323 323 320 318 316 316 315 316 317 316 316 317 316 316 316 311 311 319 328 327 326 341 354 353 353 358 358 355 355 354 353 353
313 315 317 318 315 314 316 317 317 318 318 316 317 319 321 324 323 317 315 314 315 315 315 315 315 315 315 314 315 315 315 315 315 314 315 315 314 316 318 317 317 317 317 315 313 312 313 315 318 317 318 322 326 324 322 322 323 323 323 321 317 315 314 316 316 316 318 317 315 316 316 311 311 321 330 328 324 331 349 355 354 354 355 354 353 353 352 353
314 316 319 320 319 319 319 318 318 318 317 316 317 321 324 323 318 315 314 315 315 316 316 315 315 315 315 315 315 315 314 314 314 315 316 314 313 316 319 318 317 316 315 315 315 314 312 314 317 317 318 320 322 324 326 325 321 324 325 321 316 317 316 314 315 316 315 316 316 314 315 316 320 330 329 324 326 324 338 354 355 353 354 352 351 353 352 352
315 318 321 322 322 321 319 318 318 318 316 317 320 323 324 319 315 315 315 315 315 315 315 315 315 313 312 314 315 315 314 314 314 314 314 314 315 318 318 317 316 315 314 315 315 314 313 314 317 317 318 320 320 322 324 323 321 323 322 317 319 322 320 314 314 315 313 315 317 315 316 318 320 326 327 324 327 324 326 347 355 353 353 352 352 353 351 353
316 319 322 323 321 318 317 316 316 317 316 318 322 325 323 317 315 315 314 315 315 315 315 313 314 313 312 312 314 315 314 313 313 312 312 313 315 316 316 316 315 315 314 314 314 315 312 313 315 316 318 319 318 320 323 324 323 320 317 319 323 324 321 316 315 316 316 317 316 314 315 316 314 319 326 324 327 325 322 342 356 355 354 353 353 351 351 353
316 319 323 323 320 316 315 315 315 316 317 320 324 324 320 315 314 314 313 314 314 315 314 313 314 314 312 312 313 314 315 313 313 312 312 313 315 315 314 315 315 313 313 314 314 314 312 312 314 316 317 317 317 318 320 323 325 322 320 323 323 318 317 317 316 315 318 318 316 315 315 315 315 318 322 322 326 326 322 341 356 356 353 355 352 351 352 353
317 321 323 321 318 316 315 315 316 317 319 323 324 321 317 315 314 313 313 313 313 314 314 313 314 313 312 312 312 314 314 312 312 312 312 313 314 314 313 314 313 312 312 313 314 313 312 313 313 315 315 315 316 318 316 318 324 323 323 323 323 319 317 319 317 315 317 318 318 318 316 316 321 326 323 322 326 326 324 341 356 355 353 353 352 351 354 355
321 323 322 319 318 316 315 315 317 319 321 322 321 318 315 315 314 313 313 313 313 313 313 313 313 312 312 313 313 313 313 313 313 313 312 312 314 313 312 312 312 312 312 312 313 314 314 314 313 315 315 314 315 318 316 314 318 319 319 318 319 319 320 319 318 315 315 317 317 319 319 318 326 333 331 329 330 327 325 339 352 354 353 352 352 352 353 353
322 324 321 317 317 316 316 317 318 320 321 320 317 315 314 315 314 313 313 312 313 312 312 313 313 312 312 313 313 313 313 313 313 313 312 313 313 313 312 312 312 312 312 312 313 314 315 316 315 315 316 314 313 316 316 315 315 317 317 316 316 318 318 318 319 317 315 315 316 318 319 319 326 333 335 332 331 329 328 335 346 351 352 351 351 352 351 352
323 323 318 316 317 315 317 319 319 319 318 317 315 314 315 315 314 313 313 312 313 312 312 313 312 313 312 312 312 313 312 313 313 313 313 312 312 313 311 311 312 311 312 313 313 315 316 317 317 316 315 314 315 316 316 316 317 317 318 319 317 318 316 316 319 320 316 315 316 318 317 320 327 333 333 329 330 329 329 332 340 348 351 352 352 352 352 351
323 322 317 315 317 316 318 319 319 318 316 316 315 312 314 314 313 313 313 312 313 312 313 312 313 313 312 311 312 312 312 313 312 312 313 313 312 312 311 311 311 311 312 314 315 315 316 317 318 318 317 315 315 315 315 315 315 316 318 319 318 320 318 317 321 323 319 316 318 319 317 319 325 333 331 331 334 333 332 329 331 343 349 351 352 352 351 351
321 322 321 317 316 316 317 317 318 318 315 314 314 313 313 313 312 312 312 312 313 312 312 312 312 312 311 311 311 311 312 313 312 311 312 313 312 312 312 311 312 312 313 315 315 314 315 317 318 320 322 319 315 315 318 320 318 316 318 319 319 321 321 320 323 325 323 320 320 321 319 321 327 333 333 335 339 340 340 336 331 333 338 344 351 352 351 351
321 324 322 318 316 316 316 315 316 316 316 315 314 313 313 313 311 311 311 312 311 311 312 311 312 312 311 312 312 311 312 312 313 313 313 312 313 312 312 312 311 311 313 316 316 313 314 315 316 319 323 322 320 321 323 322 318 316 316 317 318 318 319 319 320 323 326 327 323 323 323 324 327 331 332 336 341 342 344 345 343 342 338 339 345 350 352 352
322 323 320 319 318 316 316 315 315 316 316 317 317 315 313 313 312 311 311 312 311 310 311 311 312 312 311 312 313 312 312 312 313 314 314 313 313 312 313 312 312 312 314 317 316 313 313 314 314 317 319 319 318 319 320 318 315 314 313 313 314 316 317 318 319 321 326 327 324 325 329 325 325 328 328 333 341 342 344 347 347 347 349 346 344 348 351 351
321 320 318 320 320 317 316 315 314 316 314 316 319 316 312 312 312 311 311 311 310 310 311 312 312 312 312 312 313 312 312 313 314 314 314 313 313 313 313 313 312 313 315 315 314 313 314 313 313 314 314 313 313 313 313 313 312 311 311 312 313 314 316 317 318 321 324 325 324 329 331 324 324 329 326 331 341 342 342 345 345 348 350 350 350 350 350 351
320 319 316 317 318 317 316 315 314 315 313 314 316 315 313 313 312 311 311 311 311 311 313 314 314 313 313 313 313 314 314 314 314 315 315 315 315 314 314 313 312 312 314 313 313 313 314 313 311 310 310 310 310 310 311 312 311 311 311 312 312 313 314 315 316 318 320 323 323 327 330 325 325 328 327 334 343 342 341 344 345 347 349 349 350 350 350 353
318 319 317 317 317 316 315 314 314 314 314 316 316 314 313 313 312 312 311 311 312 312 313 314 313 313 313 313 314 316 315 315 316 316 315 315 315 314 315 314 313 312 312 312 313 313 314 314 312 311 311 311 310 311 311 310 311 311 312 312 311 312 313 313 315 316 317 319 320 322 325 325 326 328 329 337 345 343 342 344 345 347 347 346 347 348 347 350
317 318 319 319 317 316 316 315 315 315 315 317 317 314 313 313 313 312 311 311 312 312 312 313 312 312 312 313 315 315 315 315 315 315 315 314 314 315 315 314 314 313 313 312 312 313 315 315 314 312 312 311 311 311 311 311 311 311 311 311 311 312 312 312 314 316 317 319 320 321 324 325 327 332 336 341 347 346 343 343 344 343 343 343 345 345 346 347
316 316 318 319 319 320 318 315 316 317 315 315 315 314 313 314 312 312 313 313 311 312 313 312 311 312 311 313 314 314 314 314 314 313 313 312 313 313 313 313 313 314 314 314 314 314 315 315 314 314 315 314 312 311 311 311 311 310 310 311 310 310 311 312 313 315 317 318 318 319 321 326 332 339 343 342 344 345 342 341 340 340 340 341 342 342 342 344
317 316 317 320 320 319 318 316 316 317 314 313 314 314 313 313 313 313 314 314 311 312 312 311 312 312 312 313 314 314 313 313 312 311 311 311 311 311 311 311 311 313 314 314 314 314 315 315 314 315 316 315 313 312 313 312 312 312 311 311 311 311 311 311 312 315 315 315 317 317 321 324 329 337 344 343 342 345 344 338 335 337 338 338 338 338 339 339
Wind_Speed
30 31 32 31 29 26 24 22 21 20 19 19 18 19 19 19 20 20 20 19 19 18 17 16 15 15 14 13 13 14 15 13 9 7 11 9 10 11 6 5 7 13 13 7 10 9 9 10 11 13 11 9 7 6 8 9 5 4 2 2 2 3 2 2 1 2 3 6 3 2 2 5 4 6 2 2 4 2 12 10 5 4 10 15 22 32 33 34
29 31 32 31 29 27 25 23 22 21 20 19 19 20 21 22 22 22 21 20 20 19 17 16 15 13 13 12 12 13 13 12 9 13 17 8 8 10 9 6 6 10 13 11 13 12 10 9 10 12 8 5 6 7 7 6 6 4 3 3 3 4 3 2 3 4 3 5 4 2 0 3 7 6 1 3 1 2 8 11 9 10 15 17 24 31 31 31
29 30 31 31 30 27 25 23 22 22 21 20 20 22 23 24 24 23 22 21 20 18 17 16 16 13 12 10 11 12 11 10 8 11 12 8 10 10 10 11 11 10 12 15 16 15 13 11 13 11 7 6 6 8 8 6 6 6 4 3 4 6 3 4 4 6 5 5 6 3 3 4 4 3 1 3 5 1 2 7 9 15 20 19 21 26 28 29
29 30 31 31 30 28 25 24 23 22 22 20 21 23 24 26 26 24 22 21 19 17 16 16 15 13 10 8 9 10 7 6 4 4 3 5 8 11 14 14 14 13 13 17 17 16 16 13 14 12 8 7 6 8 8 6 6 5 6 6 4 6 4 5 6 7 6 4 6 5 5 5 1 1 2 3 6 2 3 3 7 17 23 21 20 22 25 26
30 30 31 31 31 29 26 24 23 23 22 21 22 24 25 27 27 24 21 20 19 16 15 14 14 11 7 7 8 7 4 2 2 4 1 2 5 9 15 16 16 15 14 17 15 14 16 12 10 11 7 5 6 6 7 9 8 4 7 8 6 7 5 6 7 8 7 5 7 6 6 4 1 1 4 6 5 3 4 4 10 19 21 22 21 20 21 21
30 31 31 32 32 31 28 25 23 23 22 22 22 24 26 28 28 23 19 19 17 14 13 13 12 8 4 7 7 3 1 1 2 3 1 1 4 7 12 15 15 14 13 14 13 11 11 11 10 9 6 5 7 7 8 11 9 5 6 6 8 9 7 8 9 10 9 7 7 6 6 6 2 2 6 7 5 5 5 3 12 19 19 22 22 19 19 19
30 31 31 32 32 31 30 26 24 23 23 23 23 25 25 28 27 21 18 18 15 14 12 11 9 5 4 7 5 1 3 6 4 1 3 1 4 5 10 13 14 14 13 13 12 9 8 9 11 7 6 6 7 9 10 11 11 8 6 4 7 9 9 12 11 12 11 9 7 6 8 8 5 4 6 8 5 6 5 3 8 18 20 22 20 17 17 17
30 31 32 32 32 32 31 28 25 24 24 24 25 25 25 27 25 20 17 16 14 13 10 9 6 3 5 5 3 2 4 7 5 3 4 2 2 4 10 13 15 15 14 14 13 10 8 9 11 7 6 7 8 10 10 10 9 7 7 6 9 9 10 12 12 13 12 9 9 9 9 9 10 7 5 8 7 7 6 4 9 18 19 18 18 17 16 16
30 31 32 32 32 32 31 30 26 24 24 25 25 25 25 25 23 19 16 13 12 11 9 8 6 5 7 4 3 3 2 3 5 6 3 1 1 3 10 13 14 16 14 15 14 12 8 7 10 8 6 8 9 9 9 8 5 6 9 8 8 9 10 10 12 14 11 8 9 11 9 8 10 7 3 6 10 9 7 6 12 18 17 16 17 16 15 16
30 31 32 32 32 32 32 31 27 24 24 25 26 26 25 23 22 19 15 12 11 11 10 9 8 8 7 4 3 2 1 2 2 4 2 3 1 3 10 12 14 17 13 13 14 13 10 9 9 7 7 7 7 8 8 7 4 6 8 7 7 10 13 11 13 13 10 8 11 11 8 8 8 6 3 5 11 12 9 11 15 15 15 16 16 15 14 16
30 31 31 32 33 32 32 31 28 25 25 26 26 26 25 22 21 19 16 12 10 12 12 11 10 8 6 4 3 3 4 5 2 3 1 4 3 4 9 12 14 17 13 11 13 15 14 15 13 6 5 5 6 8 8 8 7 9 9 8 7 6 11 11 13 12 8 7 11 11 9 7 5 3 4 7 11 12 11 14 16 15 14 15 15 13 12 13
30 31 31 32 32 32 32 31 29 26 26 27 27 26 24 21 20 18 16 13 11 12 11 9 7 4 4 4 6 6 6 7 4 6 4 4 6 7 6 11 15 16 14 10 12 18 19 19 16 8 5 3 5 5 5 7 7 8 8 6 8 3 5 11 13 15 10 6 12 12 7 6 6 5 7 10 11 12 12 13 14 14 13 14 14 13 10 11
31 32 32 31 32 32 32 31 29 27 27 27 27 26 23 21 19 18 17 13 11 10 9 7 4 2 3 4 6 6 7 7 3 4 5 5 8 8 6 11 15 14 15 13 14 19 20 19 15 10 7 6 5 4 7 7 5 6 7 3 4 5 2 9 12 16 13 10 17 11 3 5 8 9 10 9 10 11 12 12 12 13 12 11 12 12 10 11
31 32 32 32 32 32 32 31 29 28 27 28 27 25 23 21 20 17 16 12 10 8 7 7 4 1 2 5 7 4 5 7 4 4 5 7 7 9 8 10 13 14 16 17 18 18 18 18 14 8 7 7 6 7 9 7 5 5 4 3 2 2 3 8 9 15 14 13 22 13 2 5 7 10 14 10 10 12 12 13 11 12 12 11 11 11 12 15
31 33 32 32 32 32 32 30 29 27 27 28 27 25 23 20 19 17 14 12 10 8 8 8 4 2 3 7 9 5 4 4 5 6 6 5 6 7 10 9 11 14 16 17 17 17 17 14 10 5 5 6 6 6 6 4 5 4 2 3 3 4 4 9 10 15 14 12 21 15 2 5 7 11 16 12 12 13 12 12 11 11 12 12 12 11 11 15
32 33 32 32 32 31 32 30 29 27 27 28 26 24 22 20 20 16 13 12 11 9 6 4 5 6 2 4 3 4 6 3 2 4 5 4 8 8 11 12 10 12 14 15 14 14 15 10 4 4 4 5 5 4 4 3 4 4 3 3 4 5 5 7 10 13 15 12 16 14 5 3 6 10 14 14 14 14 10 11 13 12 12 12 11 11 10 12
33 33 32 32 31 31 31 29 28 27 27 28 26 25 23 20 17 14 13 12 11 9 6 5 5 5 4 7 5 3 4 0 4 4 4 5 8 11 8 10 8 9 11 12 13 10 8 5 2 3 4 4 3 3 3 4 4 3 4 4 6 7 6 6 8 11 14 16 16 14 8 5 8 10 14 15 14 14 10 11 13 10 11 12 10 11 11 12
33 33 32 32 31 31 30 29 27 26 27 26 25 27 24 17 11 10 10 7 5 5 7 8 6 2 3 7 7 2 2 3 5 4 3 4 7 10 10 4 6 7 7 7 9 8 4 2 2 2 3 4 4 4 5 5 4 5 6 5 6 8 7 8 7 8 12 16 17 15 10 8 11 12 14 15 14 14 11 11 11 8 10 12 11 11 11 12
34 32 32 32 31 31 30 29 26 25 28 25 24 25 18 11 5 3 4 2 1 2 3 4 5 2 3 4 6 2 3 4 5 6 6 5 5 6 9 6 5 6 6 3 5 6 4 2 3 4 4 5 6 7 7 6 6 9 8 5 6 6 7 10 9 9 10 13 15 15 12 11 13 13 13 15 14 12 10 9 9 7 8 9 10 11 11 12
33 32 32 31 31 31 30 29 25 24 26 25 26 21 10 8 5 1 2 3 5 6 8 7 7 6 5 4 4 6 8 7 7 8 7 5 6 6 6 6 5 5 5 4 6 7 5 3 4 5 6 7 8 9 10 10 11 12 9 7 7 6 6 9 11 12 9 9 14 16 14 16 16 15 14 14 13 12 11 10 8 9 8 6 9 12 11 11
33 32 32 32 32 31 29 28 25 22 22 24 22 12 4 7 4 3 6 6 8 10 12 12 8 5 6 6 7 7 6 6 8 5 3 4 6 5 3 5 5 4 5 6 5 5 6 5 6 8 9 9 9 10 11 12 13 13 9 7 7 7 7 8 10 11 9 6 11 16 14 17 19 17 16 15 14 13 13 12 10 11 11 7 9 12 10 8
32 31 32 32 32 31 29 27 24 20 19 18 12 4 2 7 5 6 7 6 11 12 13 12 8 6 7 6 5 5 4 5 8 6 4 3 5 4 3 5 4 4 6 7 5 4 5 6 7 9 9 10 10 10 11 12 12 10 7 6 6 6 8 9 9 8 6 4 8 16 13 15 19 18 17 17 16 14 14 15 12 12 13 9 9 11 8 6
32 31 31 31 31 30 28 25 21 16 16 14 9 4 5 9 9 11 7 4 9 11 11 8 7 6 6 4 2 2 4 6 4 4 4 2 3 3 5 5 5 5 6 7 6 4 4 6 10 12 10 10 11 11 11 10 8 7 6 4 5 7 7 6 7 8 3 2 6 14 12 11 15 15 15 17 16 14 15 16 13 12 13 13 11 11 10 8
31 31 30 30 32 29 26 24 17 12 16 18 16 8 8 9 10 12 7 4 5 8 9 8 7 5 2 1 1 1 3 5 3 2 3 3 2 1 3 4 6 5 5 8 9 8 7 7 12 13 12 11 11 10 10 7 5 6 7 6 5 8 9 8 7 9 7 5 5 9 9 6 12 14 13 14 14 13 15 15 14 12 12 12 11 10 11 10
31 31 29 29 30 29 28 20 11 15 20 17 12 7 10 10 11 11 5 3 3 5 7 7 4 2 1 1 2 2 3 5 3 2 3 1 1 2 2 3 4 4 6 9 10 8 9 10 10 11 13 12 10 9 8 7 5 5 7 8 9 10 12 12 9 8 6 5 6 7 5 4 11 16 14 12 13 13 13 15 15 13 12 11 11 10 10 10
31 30 28 28 29 31 24 9 10 21 18 10 12 15 13 11 13 9 2 2 3 2 4 4 3 1 0 2 3 2 4 4 1 3 2 2 2 1 3 3 2 4 6 6 5 4 6 9 11 10 10 12 11 8 8 8 5 4 5 7 10 10 11 12 11 6 3 4 6 4 3 4 9 14 15 15 16 15 15 16 15 14 13 12 12 11 11 10
31 29 29 26 26 28 17 7 16 21 10 7 15 16 14 12 13 8 1 2 3 4 4 2 2 2 2 2 2 1 1 2 2 2 3 2 2 1 2 4 3 4 5 3 2 3 5 9 10 10 10 8 8 7 8 9 5 3 6 9 8 8 9 11 9 5 3 5 7 6 3 3 6 11 16 18 17 17 16 16 16 15 15 15 14 13 12 13
31 29 29 26 24 23 14 14 17 13 7 12 16 14 14 14 12 6 1 1 1 3 2 1 2 2 2 2 3 3 2 2 2 1 5 6 3 2 2 5 6 6 6 4 3 5 6 7 7 9 9 6 5 6 9 10 7 4 6 9 8 7 7 7 7 5 3 3 6 6 4 2 3 8 15 17 16 17 16 17 18 17 18 17 17 15 13 14
31 29 28 27 23 15 9 12 13 8 11 16 16 15 15 15 10 2 1 2 1 2 0 1 2 2 3 2 4 5 5 4 3 3 4 5 5 3 2 4 6 8 8 6 5 7 8 5 2 5 7 5 6 7 6 8 6 5 8 9 8 7 7 5 2 2 1 2 6 6 2 3 4 4 12 13 13 15 15 16 17 17 18 17 17 17 14 12
31 28 26 27 22 12 8 11 13 9 13 14 15 17 16 11 4 2 2 1 3 2 1 2 1 2 4 4 4 5 5 3 2 3 3 2 5 4 2 4 5 6 6 6 7 8 10 10 7 5 5 5 7 7 7 7 4 2 6 7 7 6 5 4 2 3 3 2 6 8 4 2 5 3 8 10 13 18 15 13 14 15 17 17 16 17 15 13
31 28 25 24 21 12 8 9 9 9 12 13 14 15 11 4 1 2 1 1 3 1 2 4 2 3 5 4 3 5 4 3 0 2 2 2 4 5 2 3 3 3 4 5 5 8 10 10 6 5 6 4 4 5 5 8 6 3 3 3 3 4 4 3 3 4 2 3 6 8 6 5 5 5 5 5 12 22 20 16 18 18 18 18 17 17 16 15
31 26 20 18 17 12 10 7 5 10 11 12 13 9 4 1 2 3 2 0 2 2 1 4 2 1 1 3 2 4 3 0 1 1 2 2 2 3 4 4 2 1 3 3 3 5 8 8 5 5 6 4 3 4 3 4 6 4 1 2 2 1 2 2 1 0 2 4 5 8 7 5 5 7 10 9 7 18 21 19 21 22 20 19 18 17 16 15
30 22 14 10 10 12 10 7 7 8 10 13 9 4 2 2 1 1 2 3 2 2 2 4 1 3 3 3 2 3 3 1 2 1 3 3 4 4 4 2 5 2 1 2 4 3 4 7 7 5 3 2 2 3 2 2 3 4 1 3 2 1 2 3 2 2 3 4 6 9 8 4 3 6 10 13 10 12 18 18 19 22 23 21 20 19 17 17
27 16 9 7 10 13 10 7 6 7 10 10 5 3 3 3 1 5 6 7 4 2 5 4 1 2 3 4 1 3 1 2 1 3 4 3 4 3 2 8 13 8 2 3 4 3 3 5 4 2 1 4 6 6 5 4 3 4 4 3 3 2 2 2 3 4 4 4 8 11 8 4 4 5 7 11 14 8 16 20 18 19 20 19 18 19 18 19
23 11 8 11 15 15 11 8 6 9 10 6 3 3 2 0 3 6 5 6 7 6 7 4 4 2 4 4 3 5 3 3 3 2 2 3 2 4 4 8 13 10 5 4 3 4 5 5 3 8 10 6 8 8 7 7 4 3 5 4 4 4 2 2 4 4 3 3 3 6 5 4 6 8 9 10 15 13 10 19 20 16 17 17 16 17 18 17
22 13 8 13 17 10 5 5 5 8 7 4 2 2 1 3 5 4 4 6 7 8 9 7 3 2 3 2 4 6 4 2 1 0 2 2 2 7 7 6 10 10 8 3 2 4 4 6 7 13 15 8 3 7 9 5 4 1 3 5 6 6 4 3 4 7 5 3 2 3 4 4 5 6 9 11 13 16 11 15 21 18 19 19 16 17 17 16
24 16 9 12 13 3 4 2 4 5 4 3 3 2 1 4 8 7 6 8 8 8 8 5 2 3 1 3 4 4 3 1 0 0 2 2 3 8 8 8 9 11 10 5 2 4 4 7 9 10 13 14 14 10 9 10 6 4 2 3 4 6 4 1 1 3 3 2 2 3 6 4 4 5 8 10 12 15 14 12 21 20 19 20 17 17 19 18
21 13 9 10 7 6 7 2 4 5 3 3 2 3 1 5 8 9 8 8 8 7 5 4 3 5 4 4 2 1 1 1 1 1 3 1 4 9 8 7 10 12 11 8 3 4 5 7 8 6 9 15 18 12 4 10 9 7 6 5 0 2 3 1 1 1 2 2 2 4 8 5 4 4 9 13 12 14 14 11 20 21 19 19 18 19 19 17
12 6 4 4 4 6 5 3 4 4 3 2 3 2 3 7 8 9 8 8 7 5 4 5 5 6 7 5 4 5 3 2 2 2 3 2 4 8 10 6 8 13 12 8 4 3 3 2 6 6 11 14 12 6 3 3 5 7 7 6 1 2 2 2 2 1 2 2 1 3 5 4 5 4 10 13 12 12 11 10 19 21 21 20 17 16 16 14
6 3 2 5 6 4 3 4 4 3 3 2 2 3 7 6 7 10 7 6 6 3 3 7 6 6 8 7 8 7 5 1 2 2 2 3 5 8 12 9 8 11 11 8 6 4 3 1 5 9 12 11 7 3 8 10 5 2 4 5 2 1 2 1 2 2 3 3 2 2 4 5 6 5 4 6 9 12 10 9 17 20 21 21 19 16 16 15
4 2 1 5 5 2 4 5 3 3 2 2 4 6 6 4 6 10 7 5 6 3 2 4 3 4 6 7 9 8 6 3 4 4 3 5 7 5 9 10 9 10 8 6 7 6 4 2 4 8 8 6 9 12 14 14 11 6 3 4 5 4 2 2 3 3 3 2 2 3 3 6 7 4 5 4 3 8 8 7 12 20 22 20 19 19 19 17
3 2 3 5 3 3 5 4 1 0 1 4 5 6 5 3 7 12 9 7 5 4 3 3 4 6 7 7 7 7 6 4 5 5 4 8 9 6 7 10 10 10 7 5 6 8 5 3 3 7 6 7 13 18 17 14 13 9 5 4 5 5 3 3 4 2 2 3 4 2 3 7 9 3 8 10 10 9 9 9 8 17 24 21 20 22 20 19
1 4 2 2 1 5 4 3 3 2 3 3 6 7 8 6 8 10 11 10 7 6 6 6 8 8 8 9 8 8 7 4 6 8 6 7 9 10 13 13 10 9 7 5 6 9 6 3 3 6 7 7 12 15 13 10 9 8 6 5 6 6 8 6 3 2 0 3 5 1 2 7 10 6 9 10 14 15 6 10 9 14 19 19 21 22 20 18
4 4 3 3 6 6 2 4 5 3 4 4 6 9 7 7 8 9 9 10 8 7 7 7 8 7 7 8 6 7 8 5 6 9 8 6 5 10 18 18 12 9 6 4 5 6 4 3 4 5 5 6 7 8 7 8 9 6 6 10 11 11 14 12 5 3 1 4 7 4 3 6 7 10 12 10 14 20 16 7 3 7 9 13 18 19 18 17
5 3 2 5 5 1 3 4 5 4 5 6 7 8 7 7 8 9 9 10 9 8 7 7 8 7 7 8 6 7 9 6 5 8 9 7 6 8 16 18 13 9 9 9 8 4 2 3 3 2 3 4 4 3 3 6 8 7 9 13 14 15 17 12 6 4 3 4 6 1 4 8 11 15 17 16 17 19 21 19 12 8 6 1 11 17 19 17
4 1 2 5 5 4 3 4 6 5 5 5 4 7 9 6 7 8 8 7 8 8 7 6 9 8 7 9 8 7 9 9 7 7 7 7 6 7 12 14 11 9 11 13 10 4 1 2 3 3 4 6 7 7 7 9 9 9 14 17 14 14 13 8 4 3 3 5 4 1 3 12 14 15 17 16 17 17 18 19 18 18 17 14 8 4 15 18
2 2 3 2 3 5 5 4 5 4 7 7 1 2 7 6 6 7 5 5 7 8 5 5 8 9 8 8 8 7 9 9 7 6 6 7 7 8 11 11 9 9 10 9 8 4 1 3 5 7 9 10 11 13 13 12 11 12 15 18 15 12 11 7 4 4 4 5 5 2 7 13 11 12 16 12 11 13 15 16 16 16 16 16 19 17 8 9
2 2 4 1 1 4 5 5 5 7 9 9 2 2 5 5 6 5 4 5 7 7 4 4 8 11 10 8 5 5 6 5 4 4 5 5 5 7 9 8 7 8 8 5 5 4 3 4 6 8 11 12 12 14 14 12 11 12 13 16 16 13 11 9 8 8 7 5 6 7 11 13 9 12 16 10 8 9 12 13 13 15 17 17 18 21 20 12
3 3 6 5 2 3 4 5 6 9 9 8 5 6 7 6 8 9 6 5 5 6 5 4 8 11 8 5 3 2 3 3 3 4 4 4 4 4 4 4 4 5 6 5 4 2 1 3 7 9 11 12 12 13 14 13 12 13 13 14 15 14 12 10 10 10 10 11 11 10 13 13 8 9 12 9 6 7 10 12 13 16 18 19 18 18 19 16
3 2 5 6 4 4 4 5 6 6 6 6 5 6 8 9 11 10 7 7 6 6 5 5 7 8 6 7 4 2 4 5 4 4 4 4 3 2 2 2 1 2 3 3 3 2 1 3 8 9 8 9 11 12 12 12 11 14 15 13 13 15 13 10 10 9 8 11 11 10 11 10 6 6 8 8 6 8 12 13 14 14 14 16 17 17 17 17
7 5 6 3 2 3 2 4 5 3 5 5 4 5 6 8 9 7 6 5 5 3 4 7 6 4 1 3 3 3 5 5 6 6 7 6 5 3 2 2 2 1 2 2 1 1 1 3 6 6 5 7 9 12 12 12 12 14 15 13 12 12 12 9 8 7 7 9 11 10 8 6 5 5 6 8 9 11 12 13 12 11 12 15 15 16 17 16
12 9 9 3 0 2 1 4 4 4 4 3 3 4 4 6 7 6 4 3 3 1 2 5 5 3 2 2 3 4 5 6 7 7 6 6 6 6 5 5 6 5 2 1 1 2 2 2 2 3 4 6 10 13 14 12 10 9 9 10 10 10 11 11 10 10 9 9 9 8 6 5 7 8 6 6 7 9 10 11 11 10 11 13 13 14 15 15
Wind_Direction
7 6 7 8 7 6 5 3 1 359 357 356 354 351 346 343 338 332 326 320 319 319 322 327 329 331 327 328 334 332 330 320 309 269 242 242 211 204 220 221 203 196 203 213 207 208 194 200 216 211 218 230 232 240 232 220 173 132 157 187 230 233 222 234 52 63 94 104 150 205 271 295 99 122 140 135 274 143 127 125 119 161 144 137 141 145 149 148
5 6 6 6 7 5 3 2 360 358 356 354 352 349 345 342 337 332 325 319 316 314 317 319 322 328 321 323 333 332 332 318 290 264 249 216 176 209 228 224 201 192 202 212 212 215 204 192 205 207 211 226 222 223 230 213 175 175 186 184 218 221 198 157 89 67 87 108 148 199 170 354 47 74 102 144 317 17 129 133 148 158 139 141 144 145 151 149
4 4 4 5 6 4 1 360 358 356 354 353 351 348 345 342 339 333 326 320 314 312 312 311 316 324 317 318 331 334 331 316 280 262 257 211 198 221 230 227 214 207 209 208 207 215 215 197 197 202 207 223 228 216 215 204 191 200 200 226 228 201 174 133 121 99 111 123 140 166 85 58 46 79 174 166 140 203 172 143 157 148 142 151 146 147 154 148
1 2 2 3 4 3 1 358 356 354 352 351 349 347 345 344 342 335 329 323 316 312 307 307 313 319 319 317 331 340 322 302 273 232 247 205 205 214 223 230 228 227 222 213 211 224 233 215 195 201 212 217 225 224 221 212 207 196 201 238 215 172 159 131 136 113 108 109 130 141 94 82 41 104 208 181 137 178 256 203 164 145 146 151 147 153 156 149
359 359 360 0 1 1 359 357 354 352 349 348 347 345 344 344 343 336 332 329 323 314 305 305 312 320 322 317 333 343 321 322 114 143 153 212 208 216 224 230 234 231 221 216 221 241 259 259 219 203 215 231 224 228 230 222 222 212 221 230 183 162 153 133 139 125 127 140 140 136 116 116 64 24 216 184 153 188 219 212 162 149 149 150 150 156 155 151
357 356 357 358 359 359 358 355 352 350 347 344 344 344 344 344 342 336 333 333 330 319 308 308 315 324 323 323 335 331 302 2 123 140 88 227 223 225 221 222 222 216 208 210 224 245 259 268 250 208 200 237 235 241 237 222 221 228 251 238 161 156 150 147 149 143 151 150 139 143 128 112 80 297 240 196 183 201 204 203 156 150 151 150 151 156 157 153
355 355 354 355 355 356 355 352 350 348 346 343 341 342 344 343 341 336 333 334 332 324 319 320 322 329 329 332 340 244 249 280 266 112 35 336 238 225 201 203 208 203 199 204 215 231 239 252 249 216 197 223 235 249 252 239 227 213 245 253 162 158 156 160 159 151 152 139 130 138 127 123 155 221 237 211 210 192 190 246 159 147 151 151 152 161 158 150
355 354 352 352 352 353 353 350 347 345 344 341 339 340 342 343 341 336 333 333 335 333 331 338 344 350 337 337 322 251 238 250 216 124 15 353 211 213 187 192 206 202 197 204 209 216 232 251 243 221 206 220 232 240 248 253 244 225 234 226 183 171 161 161 155 150 145 133 133 142 147 159 177 192 214 198 182 162 171 223 160 145 152 153 155 165 157 150
355 353 351 350 349 350 351 348 345 342 340 339 338 339 340 343 342 338 333 333 338 337 338 345 348 341 331 318 284 277 233 244 163 128 26 66 167 232 189 192 202 192 195 209 215 221 225 247 239 219 221 233 241 245 251 253 250 244 237 228 207 167 152 156 146 150 147 134 145 156 172 178 177 179 185 169 150 153 172 167 144 142 153 155 159 168 158 154
354 353 350 348 347 348 348 346 344 339 335 334 335 338 338 341 341 337 330 327 332 331 331 331 327 328 318 277 266 274 284 323 150 125 60 152 224 261 189 192 195 183 193 210 215 227 229 246 246 221 237 255 258 265 274 270 280 280 264 263 238 162 152 161 146 151 151 143 155 158 176 189 182 173 164 158 147 158 171 152 147 149 155 160 166 168 160 158
353 352 350 347 346 345 345 345 342 337 332 329 331 334 336 338 338 336 327 319 321 323 322 315 312 313 297 269 262 257 296 317 293 283 276 168 217 234 191 191 193 185 195 209 214 228 235 248 257 238 231 253 267 273 282 283 300 305 303 308 280 165 150 162 149 154 156 150 157 146 154 180 195 187 177 171 158 167 168 156 158 156 156 164 168 166 165 162
352 351 349 346 345 343 342 342 341 336 331 326 327 329 332 334 334 334 325 314 312 320 326 322 319 305 288 273 242 231 279 318 314 276 244 199 214 213 206 198 193 192 200 209 217 229 241 254 264 264 245 246 251 261 289 284 290 294 289 299 296 310 147 167 163 164 166 156 156 143 134 172 199 193 170 158 162 170 162 160 163 154 158 168 165 166 171 161
350 349 348 346 344 342 340 340 339 335 330 326 325 326 328 328 330 329 319 309 307 320 332 331 334 304 284 265 243 234 267 286 294 278 247 238 221 194 211 209 193 195 208 218 223 226 238 251 262 271 268 271 263 284 316 296 272 266 266 259 268 303 233 190 181 169 172 160 156 152 114 184 207 181 161 153 163 163 154 166 169 154 162 169 163 168 163 159
349 348 347 345 342 341 339 338 337 334 328 324 323 324 325 324 326 323 313 302 299 317 329 326 334 310 258 263 275 274 272 264 235 241 224 226 225 184 198 217 195 193 210 227 238 244 247 246 252 271 273 274 290 313 319 309 290 264 255 267 215 238 249 230 206 173 172 160 160 165 132 197 214 172 161 165 172 165 160 170 166 157 166 167 165 170 157 163
348 346 345 344 342 340 338 337 336 333 326 323 323 322 321 321 321 315 304 295 295 310 325 321 287 223 278 275 271 256 242 246 223 218 193 211 246 193 183 212 207 195 208 227 243 262 270 256 237 250 277 277 287 297 305 307 301 291 245 257 219 197 227 244 232 189 176 163 169 175 163 193 197 167 161 168 177 172 168 165 159 166 169 161 164 172 159 165
347 345 345 343 341 340 338 336 335 332 324 321 321 320 318 318 314 303 290 287 290 295 311 312 225 205 287 290 256 231 233 239 274 240 197 221 267 243 191 190 212 209 208 225 236 257 278 280 241 226 253 265 261 258 292 296 271 271 238 236 227 207 209 232 244 215 182 160 172 173 139 162 179 168 162 167 177 172 171 165 163 174 168 158 162 171 163 166
346 344 343 342 341 339 338 336 335 332 323 320 323 321 320 317 305 290 284 283 289 285 265 266 245 209 245 282 302 275 233 11 2 313 241 233 258 271 239 179 192 213 208 225 230 238 264 276 261 224 222 242 251 213 231 255 246 254 229 227 246 232 219 219 235 228 187 160 169 171 150 159 172 174 167 169 177 171 173 171 169 176 168 162 163 170 169 169
346 343 343 342 340 339 338 336 334 331 322 319 321 322 322 319 297 280 286 285 292 279 246 256 273 275 246 266 280 255 116 43 347 323 261 233 231 267 279 210 176 197 200 222 224 218 225 220 223 233 214 217 239 221 208 216 214 229 220 207 233 237 244 244 235 230 195 164 162 168 162 160 164 171 170 172 176 172 175 173 171 171 161 162 163 171 176 171
344 343 343 341 340 339 337 336 333 330 324 318 324 332 337 340 325 267 268 244 224 265 271 242 201 239 288 248 251 279 18 339 305 275 236 214 201 241 280 265 202 191 193 197 199 198 197 197 210 225 224 210 213 222 236 248 235 241 247 231 229 228 230 237 245 248 213 169 159 167 163 156 163 170 170 172 171 172 179 168 161 163 158 162 165 173 178 172
344 343 343 341 340 338 336 336 331 330 326 319 328 341 356 359 1 41 306 244 232 252 273 262 209 236 287 280 302 342 327 276 241 245 227 187 176 196 251 253 211 194 200 196 187 191 200 213 211 214 226 223 218 219 234 257 265 269 281 282 273 267 241 223 230 243 227 172 159 167 163 155 163 171 170 172 165 167 181 169 155 166 172 166 166 174 178 173
343 344 344 341 340 337 336 335 329 329 322 317 323 330 12 13 351 343 339 291 274 276 274 272 254 268 291 292 317 334 311 251 220 211 163 176 189 171 185 218 210 193 206 226 213 187 200 224 220 216 225 231 235 227 223 237 256 270 280 285 289 286 281 259 238 233 221 183 159 166 164 155 161 170 170 170 166 171 182 176 165 168 176 174 167 173 174 169
343 345 343 341 340 337 336 333 330 326 314 310 311 279 5 13 342 323 333 299 294 295 285 278 263 268 272 265 289 290 277 260 229 188 128 181 194 165 173 191 213 202 194 224 238 194 198 228 232 226 226 228 238 243 236 231 237 253 264 278 288 286 293 291 279 256 206 187 171 170 166 156 161 168 168 170 172 179 182 179 173 167 173 177 170 169 168 164
344 344 343 342 339 335 335 331 326 319 308 303 289 274 354 357 347 339 323 281 290 284 273 264 241 246 246 216 184 226 254 279 253 150 120 217 194 188 205 193 216 221 199 205 220 220 207 213 220 227 232 227 229 236 245 247 237 238 242 254 267 270 284 286 294 298 267 244 198 173 162 159 161 162 171 176 176 178 176 175 174 169 174 179 173 169 172 171
344 344 342 340 337 334 334 327 320 321 320 306 283 289 359 356 359 357 331 265 279 280 262 235 223 237 232 158 149 177 262 279 287 111 140 230 263 257 234 225 228 224 217 212 212 226 240 228 212 211 220 230 235 229 230 246 251 239 231 233 257 266 272 275 294 310 313 306 250 177 154 159 163 163 174 179 177 176 171 170 171 171 175 176 172 169 176 178
343 343 339 338 336 332 331 325 327 338 329 315 298 326 6 1 1 359 334 268 256 266 253 225 204 263 13 85 198 216 281 265 250 165 156 168 349 344 306 273 247 234 238 229 219 223 239 249 239 216 208 214 232 237 225 224 241 253 231 216 229 254 273 284 301 321 333 317 267 201 169 173 174 173 174 171 176 178 172 172 173 171 171 172 174 173 178 183
341 341 336 336 334 333 335 327 337 337 325 333 358 356 356 357 355 349 319 269 268 199 200 196 165 228 236 142 189 215 281 279 82 111 118 35 27 338 306 298 254 245 251 245 243 233 220 233 245 242 222 204 211 232 236 227 223 246 251 228 217 228 257 277 294 309 300 291 290 259 216 186 178 180 177 172 176 177 174 176 174 171 173 175 177 176 177 184
339 338 335 332 330 336 339 306 326 332 321 358 358 346 344 346 344 343 268 248 260 161 153 172 172 198 166 142 208 222 280 295 5 76 111 79 54 53 281 283 278 262 269 274 261 248 223 220 229 244 247 225 207 210 225 234 233 218 247 262 249 228 234 248 263 268 255 286 307 312 295 195 181 184 180 173 171 173 175 176 175 175 178 179 180 178 175 181
336 336 335 328 324 331 319 288 311 319 302 336 344 339 339 328 319 320 277 291 203 155 152 125 118 190 183 172 217 246 280 253 265 152 131 139 164 173 228 266 285 289 295 301 274 271 254 219 209 233 244 243 233 212 203 216 234 242 246 266 276 268 253 241 238 243 249 291 295 304 330 309 234 180 173 170 166 175 182 180 179 181 181 181 181 179 175 177
334 334 335 327 322 333 326 289 290 300 312 326 334 333 325 311 305 293 251 307 138 156 252 114 122 192 213 219 216 232 252 230 205 181 165 170 184 193 241 270 295 307 305 296 276 281 285 292 310 269 251 235 244 249 226 213 220 234 250 270 289 293 298 304 273 260 249 237 264 275 306 309 287 184 167 170 170 178 187 185 184 184 183 183 182 181 178 176
332 332 335 329 321 335 349 294 273 306 333 327 327 323 311 302 296 217 242 244 146 160 195 125 115 193 209 232 216 209 236 240 198 178 203 200 174 187 248 259 273 300 299 290 286 284 292 307 319 294 268 243 236 246 245 248 261 249 235 250 273 287 309 324 351 42 36 269 262 268 259 258 291 247 175 179 180 181 186 186 186 184 183 185 184 183 183 181
330 330 332 324 313 312 316 282 273 328 337 324 323 312 301 297 245 240 277 87 107 194 178 122 113 198 210 246 221 185 213 252 145 159 213 208 175 186 234 251 247 295 300 292 288 284 284 292 294 285 297 294 260 250 232 239 255 272 246 206 220 271 297 320 1 46 37 276 277 281 268 237 259 263 222 204 182 180 183 185 184 184 184 186 187 184 184 184
330 331 326 315 302 281 260 261 320 349 335 324 322 305 288 233 204 242 260 41 72 284 274 108 124 194 206 296 262 161 140 360 352 351 298 258 221 210 202 200 188 227 277 282 276 273 264 259 255 271 298 313 292 282 278 250 232 233 298 91 130 235 251 255 334 85 209 240 266 281 277 240 239 261 257 265 214 180 184 187 182 183 184 184 186 185 184 186
332 333 321 306 282 262 257 281 328 336 321 318 313 285 276 255 230 272 322 26 61 262 354 62 49 20 18 318 308 96 82 139 211 350 356 307 287 263 198 139 28 24 248 323 322 300 268 255 232 222 251 250 242 256 271 273 216 192 116 98 144 180 198 219 191 187 228 233 232 249 264 247 243 268 258 264 256 186 180 191 187 182 185 183 183 183 183 187
336 334 315 302 270 264 270 277 289 284 294 311 298 256 272 249 344 12 20 23 354 326 57 58 323 334 307 286 19 54 36 167 156 15 360 309 298 322 55 41 27 16 355 360 339 329 328 290 240 222 254 196 204 219 230 251 224 189 171 152 193 202 184 224 189 174 208 223 213 220 230 208 206 239 240 259 269 221 172 186 193 186 185 183 180 181 183 187
340 339 309 295 275 271 270 256 257 267 280 306 276 259 287 277 17 14 18 4 340 2 29 346 284 267 261 245 113 70 52 78 59 11 301 274 327 45 51 33 31 26 15 13 343 336 325 298 328 337 314 252 208 206 220 261 272 186 166 174 213 222 192 226 249 238 237 274 244 214 217 197 192 211 209 228 260 261 192 178 186 186 182 181 180 183 186 188
345 351 322 290 280 278 262 239 242 254 269 297 269 262 3 19 22 26 3 347 342 345 336 317 292 258 255 202 114 81 71 62 39 360 245 227 49 51 63 46 33 38 38 20 303 360 340 287 323 334 317 309 268 225 200 207 267 244 164 194 214 224 216 204 260 277 277 285 265 228 253 232 188 209 215 209 229 252 244 181 176 181 177 179 184 184 187 189
343 346 325 296 299 341 102 173 221 231 254 279 294 324 345 8 19 27 10 344 335 329 323 332 3 315 322 96 90 82 82 7 56 172 266 196 52 27 53 68 45 42 42 25 331 26 5 289 304 326 318 335 340 296 210 175 213 257 234 226 210 223 242 187 216 273 274 271 223 243 281 253 183 208 226 217 207 228 245 190 170 176 175 178 185 185 189 191
333 327 301 288 312 48 84 124 202 211 243 262 288 316 357 48 31 20 10 343 329 330 328 341 358 340 5 76 83 46 80 11 11 338 319 24 47 20 34 55 44 41 31 19 9 9 4 308 299 336 337 336 338 319 229 168 192 223 261 291 84 190 265 296 268 228 225 279 269 266 282 265 223 204 200 213 209 211 230 190 164 172 174 177 186 187 189 189
319 305 304 306 343 48 84 160 216 233 251 278 291 310 55 67 55 33 12 346 337 336 338 6 17 350 349 30 39 358 3 32 4 360 1 41 63 33 29 27 28 32 19 10 14 336 360 320 286 338 359 337 323 320 28 93 190 216 262 291 79 145 228 236 264 231 185 260 278 266 276 267 264 233 191 207 214 210 219 180 161 171 176 179 184 184 184 185
302 274 340 354 359 47 134 196 242 265 247 290 335 29 42 39 49 51 30 351 359 7 2 12 14 349 339 17 45 14 338 6 34 2 4 62 84 43 32 31 21 20 8 1 17 354 351 19 279 316 343 334 306 324 11 358 330 288 288 303 328 235 222 226 274 254 200 211 216 253 282 276 266 263 210 204 215 222 222 174 164 172 177 179 182 181 182 184
295 296 7 10 20 143 208 235 235 237 248 24 44 45 33 1 14 33 27 1 18 40 25 355 354 10 357 9 37 18 338 359 27 359 352 50 75 55 36 34 16 12 4 358 26 27 358 340 302 310 326 327 304 312 332 331 324 330 301 297 311 290 244 239 270 265 224 196 218 219 246 272 263 292 337 329 254 238 220 175 168 173 177 179 179 182 184 181
261 339 17 40 58 217 250 277 283 137 24 44 63 44 22 21 21 19 10 6 26 31 14 6 20 33 25 16 22 11 353 359 5 358 22 57 70 79 62 46 30 22 15 2 22 18 347 302 298 300 299 302 298 303 311 310 315 322 293 272 293 299 299 242 227 259 313 349 330 217 180 271 269 320 339 326 332 304 228 192 167 169 179 183 177 179 183 180
292 334 331 109 213 262 282 329 337 49 81 73 86 64 35 35 37 27 12 4 16 19 11 30 38 33 29 24 15 7 8 5 358 3 24 57 73 74 58 43 32 31 26 6 6 2 343 326 339 312 301 304 299 301 304 303 323 332 317 327 329 341 352 318 241 145 288 353 347 302 177 256 271 339 349 331 347 343 281 208 181 164 175 182 177 179 181 179
331 303 250 237 257 269 331 5 344 38 64 52 84 87 69 47 38 37 21 8 15 17 9 24 30 24 22 17 6 11 21 15 356 3 13 25 49 56 46 33 17 22 44 31 2 1 354 360 6 338 321 322 316 321 325 332 351 344 323 342 344 353 358 340 342 62 24 35 29 351 259 250 290 348 348 345 5 8 5 345 236 173 173 177 174 178 177 178
320 266 257 317 315 346 71 23 5 32 37 34 50 55 62 65 51 44 31 20 17 13 10 12 10 18 26 13 357 10 30 37 3 358 7 3 353 24 34 27 12 11 23 16 6 10 5 345 354 348 322 310 313 339 343 335 343 327 317 333 339 353 360 349 352 11 339 19 36 6 263 294 328 347 342 351 12 18 17 10 8 20 8 163 168 176 178 177
315 299 337 341 356 39 64 34 31 40 28 29 31 21 30 54 59 45 34 30 18 6 19 20 5 17 33 17 7 13 25 30 14 358 357 351 345 0 14 17 14 6 3 358 354 358 360 306 293 271 266 272 283 297 304 309 314 313 318 321 325 342 349 341 343 353 347 342 325 188 298 312 331 344 334 348 12 18 20 15 13 18 12 11 32 148 180 181
308 355 20 356 342 12 23 24 35 47 23 17 346 357 17 26 40 37 27 42 28 5 24 50 18 22 37 28 22 19 17 11 359 358 358 349 345 347 356 3 2 357 356 350 341 338 307 283 285 277 271 272 279 287 295 301 301 304 311 310 311 323 327 323 318 310 331 326 295 333 331 310 324 336 321 336 13 16 24 22 9 10 18 23 27 32 74 158
346 13 30 13 265 22 20 355 15 49 35 22 19 13 18 31 48 44 22 38 40 15 12 59 40 34 41 44 33 8 5 356 340 359 4 348 343 341 344 344 340 351 359 344 333 337 303 279 283 279 277 277 281 287 293 297 301 303 302 300 305 315 317 317 313 312 323 298 284 323 315 300 317 325 316 338 22 15 29 33 13 7 19 29 29 32 47 55
4 6 1 347 350 53 39 1 30 61 44 18 20 18 13 27 38 32 15 10 44 43 13 18 47 38 19 20 45 9 354 351 341 357 347 328 334 326 320 318 331 11 8 329 319 354 342 298 300 290 282 281 285 288 289 291 296 297 294 294 301 306 306 307 305 307 308 289 289 307 298 292 311 318 321 351 19 13 30 38 26 16 18 26 26 26 38 42
29 39 342 340 5 20 16 13 33 71 53 18 22 17 10 25 29 17 2 354 9 32 7 352 51 55 3 353 14 4 3 358 332 330 327 319 313 289 296 320 348 29 360 309 318 7 39 312 314 315 302 292 296 292 287 288 289 286 283 284 289 291 293 296 293 292 289 283 289 296 290 293 309 313 334 6 18 20 32 37 36 25 16 23 27 22 24 28
16 19 343 334 10 341 355 36 20 44 59 30 27 25 14 33 34 4 346 351 347 6 360 344 7 55 62 6 352 340 6 355 317 313 317 312 309 307 318 318 289 277 260 247 266 326 301 299 315 321 304 292 298 295 291 290 284 276 275 276 278 283 285 285 284 283 284 290 298 296 285 293 324 331 356 20 23 29 34 35 37 31 20 24 28 23 18 17
7 0 353 354 109 317 354 80 37 29 70 51 29 32 21 38 39 11 345 339 312 316 347 327 336 2 29 22 5 356 345 319 305 311 309 299 295 289 281 282 284 284 276 261 224 208 235 277 302 309 298 293 297 301 305 303 288 269 266 270 268 270 271 270 268 269 270 280 294 293 279 294 330 339 357 24 34 43 42 37 36 29 20 24 27 24 17 13